ALK89L VCBI-VGHS

Flight info

Callsign ALK89L
Flight time N/A
Altitude 37000
Route ATETA2D ATETA DCT SAGOR/N0439F390 DCT SUGAN Q10 PONOG DCT BEMAK A462 AKEVO
Aircraft A20N/M-SDE2E3FGHIRWXY/LB1

Departure

Time N/A
Airport Bandaranaike International Colombo Airport (VCBI)

Arrival

Time 2026-04-29 00:45
Airport Hazrat Shahjalal International Airport (VGHS)
Time Latitude Longitude Altitude Speed Heading
2026-04-28 22:49 12.91459 81.88882 38800 ft 449 kts 17°
2026-04-28 22:49 12.97321 81.91099 38798 ft 449 kts 17°
2026-04-28 22:50 13.03176 81.93313 38799 ft 449 kts 17°
2026-04-28 22:50 13.09030 81.95529 38796 ft 448 kts 17°
2026-04-28 22:51 13.14886 81.97746 38798 ft 448 kts 16°
2026-04-28 22:51 13.20737 81.99964 38797 ft 448 kts 16°
2026-04-28 22:52 13.26588 82.02182 38793 ft 448 kts 16°
2026-04-28 22:52 13.32440 82.04401 38795 ft 449 kts 16°
2026-04-28 22:53 13.38299 82.06624 38798 ft 449 kts 16°
2026-04-28 22:53 13.44154 82.08846 38796 ft 449 kts 16°
2026-04-28 22:54 13.50012 82.11072 38794 ft 449 kts 16°
2026-04-28 22:54 13.55877 82.13302 38794 ft 449 kts 16°
2026-04-28 22:55 13.61743 82.15533 38795 ft 450 kts 16°
2026-04-28 22:55 13.67609 82.17764 38794 ft 450 kts 15°
2026-04-28 22:56 13.73483 82.20000 38795 ft 450 kts 15°
2026-04-28 22:56 13.79355 82.22236 38793 ft 450 kts 15°
2026-04-28 22:57 13.85192 82.24461 38795 ft 450 kts 15°
2026-04-28 22:57 13.91110 82.26717 38792 ft 451 kts 15°
2026-04-28 22:58 13.96951 82.28947 38792 ft 451 kts 15°
2026-04-28 22:58 14.02831 82.31196 38791 ft 451 kts 15°
2026-04-28 22:59 14.08720 82.33447 38792 ft 451 kts 15°
2026-04-28 22:59 14.14608 82.35697 38793 ft 452 kts 15°
2026-04-28 23:00 14.20503 82.37951 38791 ft 452 kts 15°
2026-04-28 23:00 14.26397 82.40206 38793 ft 452 kts 15°
2026-04-28 23:01 14.32294 82.42465 38796 ft 453 kts 14°
2026-04-28 23:01 14.38197 82.44727 38794 ft 453 kts 14°
2026-04-28 23:02 14.44102 82.46991 38795 ft 453 kts 14°
2026-04-28 23:02 14.50009 82.49256 38796 ft 453 kts 14°
2026-04-28 23:03 14.55910 82.51521 38794 ft 452 kts 14°
2026-04-28 23:03 14.61804 82.53788 38796 ft 452 kts 15°
2026-04-28 23:04 14.67698 82.56064 38794 ft 452 kts 14°
2026-04-28 23:04 14.76534 82.59468 38793 ft 451 kts 14°
2026-04-28 23:05 14.82418 82.61731 38778 ft 451 kts 14°
2026-04-28 23:05 14.88305 82.63996 38778 ft 452 kts 14°
2026-04-28 23:06 14.94193 82.66262 38777 ft 452 kts 14°
2026-04-28 23:06 15.00084 82.68531 38775 ft 452 kts 14°
2026-04-28 23:07 15.05978 82.70802 38775 ft 452 kts 14°
2026-04-28 23:07 15.11873 82.73077 38776 ft 452 kts 14°
2026-04-28 23:08 15.17772 82.75355 38778 ft 453 kts 14°
2026-04-28 23:08 15.23670 82.77635 38778 ft 453 kts 14°
2026-04-28 23:09 15.29573 82.79919 38778 ft 453 kts 14°
2026-04-28 23:09 15.35439 82.82190 38772 ft 453 kts 14°
2026-04-28 23:10 15.41272 82.84731 38777 ft 461 kts 24°
2026-04-28 23:10 15.46556 82.88605 38779 ft 468 kts 32°
2026-04-28 23:11 15.51638 82.92847 38780 ft 470 kts 34°
2026-04-28 23:11 15.56792 82.96982 38778 ft 468 kts 31°
2026-04-28 23:12 15.62029 83.00995 38779 ft 468 kts 30°
2026-04-28 23:12 15.67276 83.04992 38768 ft 468 kts 30°
2026-04-28 23:13 15.71634 83.08317 38774 ft 468 kts 30°
2026-04-28 23:13 15.76871 83.12318 38783 ft 467 kts 31°
2026-04-28 23:14 15.82096 83.16317 38781 ft 466 kts 31°
2026-04-28 23:14 15.87316 83.20314 38781 ft 466 kts 31°
2026-04-28 23:15 15.92526 83.24306 38778 ft 465 kts 31°
2026-04-28 23:15 15.97737 83.28302 38783 ft 465 kts 31°
2026-04-28 23:16 16.02940 83.32293 38785 ft 464 kts 31°
2026-04-28 23:16 16.08137 83.36283 38784 ft 464 kts 31°
2026-04-28 23:17 16.13327 83.40270 38784 ft 464 kts 31°
2026-04-28 23:17 16.18510 83.44255 38785 ft 463 kts 31°
2026-04-28 23:18 16.23694 83.48242 38783 ft 463 kts 31°
2026-04-28 23:18 16.28864 83.52223 38786 ft 462 kts 31°
2026-04-28 23:19 16.34028 83.56201 38783 ft 462 kts 31°
2026-04-28 23:19 16.39188 83.60178 38786 ft 461 kts 31°
2026-04-28 23:20 16.44337 83.64150 38783 ft 460 kts 31°
2026-04-28 23:20 16.49477 83.68117 38786 ft 460 kts 31°
2026-04-28 23:21 16.54612 83.72083 38780 ft 459 kts 31°
2026-04-28 23:21 16.59743 83.76049 38780 ft 459 kts 31°
2026-04-28 23:22 16.64869 83.80013 38783 ft 458 kts 31°
2026-04-28 23:22 16.69984 83.83972 38783 ft 458 kts 31°
2026-04-28 23:23 16.75064 83.87907 38783 ft 457 kts 31°
2026-04-28 23:23 16.80169 83.91863 38780 ft 457 kts 31°
2026-04-28 23:24 16.85272 83.95820 38783 ft 457 kts 31°
2026-04-28 23:24 16.90369 83.99776 38784 ft 457 kts 31°
2026-04-28 23:25 16.95469 84.03736 38785 ft 457 kts 31°
2026-04-28 23:25 17.00570 84.07701 38787 ft 457 kts 31°
2026-04-28 23:26 17.05671 84.11667 38783 ft 457 kts 32°
2026-04-28 23:26 17.10773 84.15639 38784 ft 457 kts 32°
2026-04-28 23:27 17.15873 84.19611 38786 ft 457 kts 32°
2026-04-28 23:27 17.20974 84.23587 38785 ft 457 kts 32°
2026-04-28 23:28 17.26073 84.27564 38780 ft 457 kts 32°
2026-04-28 23:28 17.31173 84.31543 38782 ft 458 kts 32°
2026-04-28 23:29 17.36279 84.35531 38781 ft 458 kts 32°
2026-04-28 23:29 17.41384 84.39521 38778 ft 458 kts 32°
2026-04-28 23:30 17.46492 84.43517 38787 ft 458 kts 32°
2026-04-28 23:30 17.51603 84.47516 38776 ft 459 kts 32°
2026-04-28 23:31 17.56716 84.51521 38774 ft 459 kts 32°
2026-04-28 23:31 17.61824 84.55525 38778 ft 459 kts 32°
2026-04-28 23:32 17.66899 84.59506 38777 ft 459 kts 32°
2026-04-28 23:32 17.72005 84.63514 38775 ft 459 kts 32°
2026-04-28 23:33 17.77117 84.67527 38774 ft 459 kts 32°
2026-04-28 23:33 17.82222 84.71540 38775 ft 459 kts 32°
2026-04-28 23:34 17.87327 84.75556 38772 ft 458 kts 32°
2026-04-28 23:34 17.92430 84.79574 38774 ft 459 kts 32°
2026-04-28 23:35 17.97533 84.83594 38772 ft 458 kts 32°
2026-04-28 23:35 18.02631 84.87614 38772 ft 458 kts 32°
2026-04-28 23:36 18.07726 84.91634 38777 ft 458 kts 32°
2026-04-28 23:36 18.12821 84.95657 38773 ft 458 kts 32°
2026-04-28 23:37 18.17917 84.99683 38772 ft 458 kts 32°
2026-04-28 23:37 18.23012 85.03712 38771 ft 458 kts 32°
2026-04-28 23:38 18.28105 85.07743 38775 ft 458 kts 32°
2026-04-28 23:38 18.33198 85.11776 38776 ft 458 kts 32°
2026-04-28 23:39 18.38259 85.15788 38778 ft 458 kts 32°
2026-04-28 23:39 18.43341 85.19818 38775 ft 457 kts 32°
2026-04-28 23:40 18.48422 85.23850 38771 ft 457 kts 32°
2026-04-28 23:40 18.53499 85.27883 38774 ft 457 kts 32°
2026-04-28 23:41 18.58573 85.31916 38775 ft 457 kts 32°
2026-04-28 23:41 18.63640 85.35949 38774 ft 456 kts 32°
2026-04-28 23:42 18.68711 85.39986 38772 ft 456 kts 32°
2026-04-28 23:42 18.73778 85.44023 38772 ft 456 kts 33°
2026-04-28 23:43 18.78841 85.48061 38775 ft 456 kts 32°
2026-04-28 23:43 18.83906 85.52103 38771 ft 456 kts 32°
2026-04-28 23:44 18.88970 85.56142 38769 ft 456 kts 32°
2026-04-28 23:44 18.94031 85.60182 38773 ft 456 kts 32°
2026-04-28 23:45 18.99089 85.64226 38769 ft 456 kts 32°
2026-04-28 23:45 19.04148 85.68277 38771 ft 456 kts 33°
2026-04-28 23:46 19.09200 85.72329 38774 ft 456 kts 33°
2026-04-28 23:46 19.14253 85.76384 38761 ft 456 kts 32°
2026-04-28 23:47 19.19305 85.80438 38766 ft 456 kts 33°
2026-04-28 23:47 19.24357 85.84494 38765 ft 456 kts 33°
2026-04-28 23:48 19.29403 85.88548 38762 ft 456 kts 33°
2026-04-28 23:48 19.34450 85.92608 38764 ft 455 kts 33°
2026-04-28 23:49 19.39493 85.96667 38762 ft 455 kts 33°
2026-04-28 23:49 19.44532 86.00727 38761 ft 455 kts 33°
2026-04-28 23:50 19.49570 86.04788 38760 ft 455 kts 33°
2026-04-28 23:50 19.54604 86.08849 38755 ft 455 kts 33°
2026-04-28 23:51 19.59634 86.12909 38755 ft 454 kts 33°
2026-04-28 23:51 19.64664 86.16973 38757 ft 454 kts 33°
2026-04-28 23:52 19.69688 86.21039 38755 ft 454 kts 33°
2026-04-28 23:52 19.74714 86.25109 38756 ft 454 kts 33°
2026-04-28 23:53 19.79738 86.29179 38751 ft 454 kts 33°
2026-04-28 23:53 19.84729 86.33226 38750 ft 454 kts 33°
2026-04-28 23:54 19.89750 86.37299 38751 ft 454 kts 33°
2026-04-28 23:54 19.94769 86.41376 38753 ft 454 kts 33°
2026-04-28 23:55 19.99790 86.45458 38750 ft 454 kts 33°
2026-04-28 23:55 20.04811 86.49542 38750 ft 454 kts 33°
2026-04-28 23:56 20.09828 86.53626 38750 ft 454 kts 33°
2026-04-28 23:56 20.14841 86.57711 38748 ft 454 kts 33°
2026-04-28 23:57 20.19851 86.61797 38751 ft 454 kts 33°
2026-04-28 23:57 20.24860 86.65885 38749 ft 454 kts 33°
2026-04-28 23:58 20.29871 86.69978 38751 ft 454 kts 33°
2026-04-28 23:58 20.34878 86.74071 38749 ft 454 kts 33°
2026-04-28 23:59 20.39891 86.78173 38751 ft 454 kts 33°
2026-04-28 23:59 20.44903 86.82277 38749 ft 454 kts 33°
2026-04-29 00:00 20.49070 86.85692 38748 ft 455 kts 33°
2026-04-29 00:00 20.54082 86.89803 38749 ft 455 kts 33°
2026-04-29 00:01 20.59096 86.93919 38753 ft 455 kts 33°
2026-04-29 00:01 20.64110 86.98038 38753 ft 455 kts 33°
2026-04-29 00:02 20.69122 87.02160 38754 ft 455 kts 33°
2026-04-29 00:02 20.74133 87.06282 38751 ft 455 kts 33°
2026-04-29 00:03 20.79150 87.10410 38754 ft 455 kts 33°
2026-04-29 00:03 20.84161 87.14539 38753 ft 455 kts 33°
2026-04-29 00:04 20.89170 87.18670 38755 ft 455 kts 33°
2026-04-29 00:04 20.94183 87.22810 38756 ft 455 kts 34°
2026-04-29 00:05 20.99191 87.26949 38754 ft 455 kts 34°
2026-04-29 00:05 21.04206 87.31098 38756 ft 456 kts 34°
2026-04-29 00:06 21.09220 87.35249 38753 ft 456 kts 34°
2026-04-29 00:06 21.14231 87.39402 38755 ft 456 kts 34°
2026-04-29 00:07 21.19245 87.43560 38750 ft 456 kts 34°
2026-04-29 00:07 21.24257 87.47720 38751 ft 456 kts 34°
2026-04-29 00:08 21.29267 87.51882 38753 ft 456 kts 34°
2026-04-29 00:08 21.34273 87.56045 38749 ft 455 kts 34°
2026-04-29 00:09 21.39275 87.60214 38753 ft 455 kts 34°
2026-04-29 00:09 21.44269 87.64380 38751 ft 455 kts 34°
2026-04-29 00:10 21.49267 87.68550 38750 ft 455 kts 34°
2026-04-29 00:10 21.54259 87.72716 38748 ft 455 kts 34°
2026-04-29 00:11 21.59252 87.76886 38747 ft 455 kts 34°
2026-04-29 00:12 21.66738 87.83147 38745 ft 454 kts 34°
2026-04-29 00:12 21.71725 87.87322 38741 ft 454 kts 35°
2026-04-29 00:13 21.76712 87.91501 38742 ft 454 kts 35°
2026-04-29 00:13 21.81695 87.95681 38741 ft 454 kts 35°
2026-04-29 00:14 21.86672 87.99858 38738 ft 454 kts 35°
2026-04-29 00:14 21.91650 88.04041 38737 ft 454 kts 35°
2026-04-29 00:15 21.96625 88.08226 38739 ft 453 kts 35°
2026-04-29 00:15 22.01592 88.12406 38739 ft 453 kts 35°
2026-04-29 00:16 22.06527 88.16565 38736 ft 453 kts 35°
2026-04-29 00:16 22.11492 88.20751 38736 ft 453 kts 35°
2026-04-29 00:17 22.16495 88.24975 38739 ft 453 kts 35°
2026-04-29 00:17 22.21423 88.29138 38735 ft 453 kts 35°
2026-04-29 00:18 22.26387 88.33337 38739 ft 453 kts 35°
2026-04-29 00:18 22.31342 88.37530 38731 ft 454 kts 35°
2026-04-29 00:19 22.36325 88.41751 38731 ft 454 kts 35°
2026-04-29 00:19 22.41293 88.45964 38728 ft 454 kts 35°
2026-04-29 00:20 22.46269 88.50189 38724 ft 455 kts 35°
2026-04-29 00:20 22.51244 88.54418 38725 ft 455 kts 35°
2026-04-29 00:21 22.56221 88.58649 38727 ft 455 kts 35°
2026-04-29 00:21 22.61203 88.62891 38724 ft 455 kts 35°
2026-04-29 00:22 22.66176 88.67128 38727 ft 455 kts 35°
2026-04-29 00:22 22.71145 88.71366 38712 ft 454 kts 35°
2026-04-29 00:23 22.76106 88.75601 38716 ft 453 kts 35°
2026-04-29 00:23 22.81054 88.79829 38724 ft 452 kts 35°
2026-04-29 00:24 22.85988 88.84049 38731 ft 452 kts 35°
2026-04-29 00:24 22.90910 88.88272 38599 ft 451 kts 37°
2026-04-29 00:24 22.93099 88.90727 37962 ft 455 kts 51°
2026-04-29 00:25 22.94983 88.93490 37326 ft 456 kts 53°
2026-04-29 00:25 22.96789 88.96330 36652 ft 458 kts 54°
2026-04-29 00:25 22.98544 88.99214 35997 ft 459 kts 56°
2026-04-29 00:25 23.00279 89.02123 35293 ft 461 kts 56°
2026-04-29 00:26 23.02022 89.05058 34509 ft 462 kts 56°
2026-04-29 00:26 23.03755 89.07969 33741 ft 457 kts 56°
2026-04-29 00:26 23.05470 89.10841 33108 ft 448 kts 56°
2026-04-29 00:26 23.07150 89.13645 32579 ft 437 kts 56°
2026-04-29 00:27 23.08793 89.16379 32045 ft 428 kts 56°
2026-04-29 00:27 23.10404 89.19057 31522 ft 420 kts 56°
2026-04-29 00:27 23.11986 89.21686 31005 ft 412 kts 56°
2026-04-29 00:27 23.13552 89.24287 30502 ft 411 kts 56°
2026-04-29 00:28 23.15117 89.26887 29967 ft 412 kts 56°
2026-04-29 00:28 23.16689 89.29499 29382 ft 413 kts 56°
2026-04-29 00:28 23.18258 89.32107 28832 ft 412 kts 56°
2026-04-29 00:28 23.19824 89.34710 28299 ft 411 kts 56°
2026-04-29 00:29 23.21388 89.37310 27759 ft 410 kts 56°
2026-04-29 00:29 23.22947 89.39906 27202 ft 409 kts 56°
2026-04-29 00:29 23.24505 89.42501 26473 ft 413 kts 56°
2026-04-29 00:29 23.26093 89.45144 25645 ft 419 kts 56°
2026-04-29 00:30 23.27683 89.47790 24677 ft 417 kts 55°
2026-04-29 00:30 23.28734 89.49536 23992 ft 416 kts 55°
2026-04-29 00:30 23.30846 89.53040 22165 ft 416 kts 54°
2026-04-29 00:30 23.32464 89.55722 20226 ft 430 kts 54°
2026-04-29 00:31 23.34112 89.58461 18516 ft 435 kts 54°
2026-04-29 00:31 23.35761 89.61218 17007 ft 432 kts 54°
2026-04-29 00:31 23.37320 89.63863 16724 ft 398 kts 54°
2026-04-29 00:31 23.38734 89.66335 16469 ft 373 kts 54°
2026-04-29 00:32 23.40044 89.68682 16210 ft 353 kts 54°
2026-04-29 00:32 23.41288 89.70929 15961 ft 342 kts 54°
2026-04-29 00:32 23.42508 89.73130 15573 ft 339 kts 54°
2026-04-29 00:32 23.43731 89.75327 15088 ft 339 kts 54°
2026-04-29 00:33 23.44958 89.77521 14601 ft 339 kts 54°
2026-04-29 00:33 23.46183 89.79712 14115 ft 338 kts 54°
2026-04-29 00:33 23.47405 89.81897 13630 ft 338 kts 54°
2026-04-29 00:33 23.48628 89.84082 13123 ft 337 kts 54°
2026-04-29 00:34 23.49840 89.86252 12645 ft 334 kts 54°
2026-04-29 00:34 23.51045 89.88410 12168 ft 333 kts 54°
2026-04-29 00:34 23.52243 89.90558 11692 ft 331 kts 54°
2026-04-29 00:34 23.53439 89.92702 11197 ft 331 kts 54°
2026-04-29 00:35 23.54632 89.94840 10706 ft 330 kts 55°
2026-04-29 00:35 23.55823 89.96975 10225 ft 330 kts 55°
2026-04-29 00:35 23.57012 89.99109 9752 ft 329 kts 55°
2026-04-29 00:35 23.58178 90.01208 9513 ft 319 kts 55°
2026-04-29 00:36 23.59316 90.03216 9038 ft 317 kts 52°
2026-04-29 00:36 23.60798 90.04924 8517 ft 312 kts 35°
2026-04-29 00:36 23.62520 90.06338 8088 ft 308 kts 31°
2026-04-29 00:36 23.64274 90.07654 7659 ft 305 kts 30°
2026-04-29 00:37 23.66045 90.08946 7338 ft 298 kts 30°
2026-04-29 00:37 23.67733 90.10167 7029 ft 294 kts 29°
2026-04-29 00:37 23.69441 90.11396 6625 ft 294 kts 29°
2026-04-29 00:37 23.71151 90.12624 6205 ft 294 kts 30°
2026-04-29 00:38 23.72859 90.13850 5784 ft 293 kts 30°
2026-04-29 00:38 23.74560 90.15071 5370 ft 292 kts 31°
2026-04-29 00:38 23.76259 90.16291 4960 ft 292 kts 31°
2026-04-29 00:38 23.77959 90.17513 4547 ft 293 kts 32°
2026-04-29 00:39 23.79658 90.18734 4122 ft 292 kts 32°
2026-04-29 00:39 23.81349 90.19950 3707 ft 290 kts 32°
2026-04-29 00:39 23.83029 90.21158 3303 ft 289 kts 33°
2026-04-29 00:39 23.84704 90.22362 2874 ft 288 kts 33°
2026-04-29 00:40 23.86377 90.23566 2426 ft 288 kts 33°
2026-04-29 00:40 23.88043 90.24764 2077 ft 283 kts 34°
2026-04-29 00:40 23.89646 90.25917 1979 ft 267 kts 34°
2026-04-29 00:40 23.91128 90.26986 1970 ft 244 kts 34°
2026-04-29 00:41 23.92477 90.27961 1998 ft 222 kts 34°
2026-04-29 00:41 23.93290 90.28583 1994 ft 208 kts 40°
2026-04-29 00:41 23.94117 90.30183 1981 ft 163 kts 98°
2026-04-29 00:41 23.93844 90.31250 1975 ft 135 kts 119°
2026-04-29 00:42 23.93376 90.32107 1952 ft 130 kts 130°
2026-04-29 00:42 23.92813 90.32867 1805 ft 127 kts 137°
2026-04-29 00:42 23.92156 90.33504 1644 ft 125 kts 143°
2026-04-29 00:42 23.91463 90.34078 1467 ft 125 kts 143°
2026-04-29 00:43 23.90769 90.34651 1313 ft 125 kts 143°
2026-04-29 00:43 23.90069 90.35208 1140 ft 124 kts 144°
2026-04-29 00:43 23.89373 90.35766 985 ft 124 kts 144°
2026-04-29 00:43 23.88675 90.36323 828 ft 124 kts 142°
2026-04-29 00:44 23.87974 90.36883 671 ft 125 kts 140°
2026-04-29 00:44 23.87507 90.37255 560 ft 125 kts 137°
2026-04-29 00:44 23.86806 90.37816 384 ft 124 kts 139°
2026-04-29 00:44 23.86106 90.38369 220 ft 124 kts 139°
2026-04-29 00:45 23.85415 90.38917 73 ft 122 kts 137°
2026-04-29 00:45 23.84777 90.39434 41 ft 100 kts 145°
2026-04-29 00:45 23.84334 90.39782 39 ft 53 kts 145°
2026-04-29 00:45 23.84129 90.39959 39 ft 26 kts 133°
2026-04-29 00:46 23.84045 90.40104 40 ft 15 kts 111°
2026-04-29 00:46 23.84011 90.40208 39 ft 15 kts 108°
2026-04-29 00:46 23.83998 90.40304 39 ft 8 kts 90°
2026-04-29 00:46 23.84004 90.40366 39 ft 9 kts 80°
2026-04-29 00:47 23.84029 90.40431 39 ft 10 kts 59°
2026-04-29 00:47 23.84075 90.40501 39 ft 13 kts 53°
2026-04-29 00:47 23.84147 90.40575 39 ft 15 kts
2026-04-29 00:47 23.84232 90.40529 39 ft 14 kts 324°
2026-04-29 00:48 23.84311 90.40466 39 ft 14 kts 323°
2026-04-29 00:48 23.84391 90.40404 39 ft 14 kts 326°
2026-04-29 00:48 23.84464 90.40343 39 ft 13 kts 321°
2026-04-29 00:48 23.84538 90.40285 39 ft 13 kts 324°
2026-04-29 00:49 23.84605 90.40239 39 ft 9 kts 347°
2026-04-29 00:49 23.84661 90.40267 39 ft 11 kts 45°
2026-04-29 00:49 23.84698 90.40337 39 ft 10 kts 81°
2026-04-29 00:49 23.84721 90.40409 39 ft 10 kts 54°
2026-04-29 00:50 23.84731 90.40423 39 ft 1 kts 53°
2026-04-29 00:50 23.84731 90.40424 39 ft 0 kts 53°